Monroe, MI

7:53 PM EST on February 19, 2017 (GMT -0500)
Custer

Weather History for KTTF - June, 2014

Change the Weather History Date:

Friday, June 6, 2014

  Actual Average Record
Temperature  
Mean Temperature 63 °F -  
Max Temperature 78 °F 77 °F 93 °F (2008)
Min Temperature 48 °F 56 °F 35 °F (1998)
Degree Days  
Heating Degree Days 2    
Growing Degree Days 13 (Base 50)    
Moisture  
Dew Point 49 °F    
Average Humidity 63    
Maximum Humidity 94    
Minimum Humidity 28    
Precipitation  
Precipitation 0.00 in - - ()
Sea Level Pressure  
Sea Level Pressure 29.98 in    
Wind  
Wind Speed 2 mph (SE)    
Max Wind Speed 9 mph    
Max Gust Speed -    
Visibility 10 miles    
Events      
Averages and records for this station are not official NWS values.
T = Trace of Precipitation, MM = Missing Value Source: NWS Daily Summary

Daily Weather History Graph

Daily Weather History Graph

Search for Another Location

Airport or City:

Trip Planner

Search our weather history database for the weather conditions in past years. The results will help you decide how hot, cold, wet, or windy it might be!

Date:

Astronomy

Jun. 06, 2014 Rise Set
Actual Time 5:58 AM EDT 9:06 PM EDT
Civil Twilight 5:25 AM EDT 9:40 PM EDT
Nautical Twilight 4:41 AM EDT 10:23 PM EDT
Astronomical Twilight 3:49 AM EDT 11:15 PM EDT
Moon 2:18 PM EDT (6/6) 1:56 AM EDT (6/6)
Length of Visible Light 16h 15m
Length of Day
15h 07m
First Quarter, 58% of the Moon is Illuminated
Jun 6
First Quarter
Jun 13
Full
Jun 19
Last Quarter
Jun 27
New
Jul 5
First Quarter

Hourly Weather History & Observations

Time (EDT) Temp. Dew Point Humidity Pressure Visibility Wind Dir Wind Speed Gust Speed Precip Events Conditions
12:11 AM 59.0 °F 46.4 °F 63% 29.95 in 10.0 mi Calm Calm - N/A   Clear
12:32 AM 59.0 °F 44.6 °F 59% 29.96 in 10.0 mi Calm Calm - N/A   Clear
12:52 AM 57.2 °F 46.4 °F 67% 29.96 in 10.0 mi Calm Calm - N/A   Clear
1:12 AM 57.2 °F 44.6 °F 63% 29.95 in 10.0 mi Calm Calm - N/A   Clear
1:32 AM 55.4 °F 44.6 °F 67% 29.95 in 10.0 mi Calm Calm - N/A   Clear
1:52 AM 55.4 °F 44.6 °F 67% 29.95 in 10.0 mi Calm Calm - N/A   Clear
2:12 AM 53.6 °F 46.4 °F 77% 29.96 in 10.0 mi Calm Calm - N/A   Clear
2:32 AM 51.8 °F 46.4 °F 82% 29.95 in 10.0 mi Calm Calm - N/A   Clear
2:52 AM 50.0 °F 46.4 °F 87% 29.95 in 10.0 mi Calm Calm - N/A   Clear
3:13 AM 50.0 °F 46.4 °F 87% 29.95 in 10.0 mi Calm Calm - N/A   Clear
3:33 AM 50.0 °F 46.4 °F 87% 29.95 in 10.0 mi Calm Calm - N/A   Clear
3:53 AM 48.2 °F 46.4 °F 93% 29.95 in 10.0 mi Calm Calm - N/A   Clear
4:13 AM 48.2 °F 46.4 °F 93% 29.96 in 10.0 mi Calm Calm - N/A   Clear
4:33 AM 48.2 °F 46.4 °F 93% 29.96 in 10.0 mi Calm Calm - N/A   Clear
4:53 AM 48.2 °F 46.4 °F 93% 29.97 in 10.0 mi Calm Calm - N/A   Clear
5:13 AM 48.2 °F 44.6 °F 87% 29.97 in 10.0 mi Calm Calm - N/A   Clear
5:33 AM 48.2 °F 46.4 °F 93% 29.97 in 10.0 mi Calm Calm - N/A   Clear
5:54 AM 48.2 °F 46.4 °F 93% 29.98 in 10.0 mi NNW 3.5 mph - N/A   Clear
6:14 AM 48.2 °F 46.4 °F 93% 29.99 in 10.0 mi Calm Calm - N/A   Clear
6:34 AM 48.2 °F 46.4 °F 93% 29.99 in 10.0 mi North 3.5 mph - N/A   Clear
6:54 AM 51.8 °F 48.2 °F 88% 30.00 in 10.0 mi Calm Calm - N/A   Clear
7:14 AM 51.8 °F 48.2 °F 88% 30.00 in 10.0 mi Calm Calm - N/A   Clear
7:34 AM 53.6 °F 51.8 °F 94% 30.01 in 10.0 mi Calm Calm - N/A   Clear
7:54 AM 55.4 °F 51.8 °F 88% 30.01 in 10.0 mi Calm Calm - N/A   Clear
8:14 AM 59.0 °F 51.8 °F 77% 30.01 in 10.0 mi Calm Calm - N/A   Clear
8:34 AM 62.6 °F 53.6 °F 72% 30.01 in 10.0 mi Calm Calm - N/A   Clear
8:55 AM 62.6 °F 55.4 °F 77% 30.01 in 10.0 mi Calm Calm - N/A   Clear
9:15 AM 66.2 °F 55.4 °F 68% 30.01 in 10.0 mi Calm Calm - N/A   Clear
9:35 AM 68.0 °F 53.6 °F 60% 30.01 in 10.0 mi Calm Calm - N/A   Clear
9:55 AM 69.8 °F 51.8 °F 53% 30.01 in 10.0 mi WSW 3.5 mph - N/A   Clear
10:15 AM 71.6 °F 51.8 °F 50% 30.01 in 10.0 mi Calm Calm - N/A   Clear
10:35 AM 71.6 °F 51.8 °F 50% 30.00 in 10.0 mi WNW 3.5 mph - N/A   Clear
11:56 AM 75.2 °F 48.2 °F 38% 30.00 in 10.0 mi WNW 6.9 mph - N/A   Clear
12:16 PM 75.2 °F 46.4 °F 36% 29.99 in 10.0 mi WNW 4.6 mph - N/A   Clear
12:36 PM 75.2 °F 42.8 °F 31% 29.99 in 10.0 mi Calm Calm - N/A   Clear
12:56 PM 77.0 °F 44.6 °F 32% 29.99 in 10.0 mi NW 4.6 mph - N/A   Clear
1:11 PM 77.0 °F 42.8 °F 29% 29.99 in 10.0 mi Calm Calm - N/A   Clear
1:33 PM 77.0 °F 44.6 °F 32% 29.99 in 10.0 mi NNW 5.8 mph - N/A   Clear
1:53 PM 78.8 °F 42.8 °F 28% 29.99 in 10.0 mi SW 3.5 mph - N/A   Clear
2:13 PM 78.8 °F 44.6 °F 30% 29.98 in 10.0 mi SSE 3.5 mph - N/A   Clear
2:33 PM 77.0 °F 53.6 °F 44% 29.99 in 10.0 mi East 9.2 mph - N/A   Clear
2:53 PM 78.8 °F 53.6 °F 42% 29.98 in 10.0 mi ESE 9.2 mph - N/A   Clear
3:13 PM 75.2 °F 51.8 °F 44% 29.99 in 5.0 mi East 8.1 mph - N/A   Haze
3:33 PM 75.2 °F 51.8 °F 44% 29.98 in 10.0 mi SE 9.2 mph - N/A   Clear
3:53 PM 75.2 °F 50.0 °F 41% 29.98 in 10.0 mi ESE 9.2 mph - N/A   Clear
4:14 PM 73.4 °F 48.2 °F 41% 29.98 in 10.0 mi ESE 8.1 mph - N/A   Clear
4:34 PM 75.2 °F 51.8 °F 44% 29.97 in 10.0 mi ESE 8.1 mph - N/A   Clear
4:54 PM 75.2 °F 50.0 °F 41% 29.97 in 10.0 mi ESE 5.8 mph - N/A   Clear
5:14 PM 77.0 °F 50.0 °F 39% 29.97 in 10.0 mi SE 5.8 mph - N/A   Clear
5:34 PM 75.2 °F 50.0 °F 41% 29.96 in 10.0 mi ESE 5.8 mph - N/A   Clear
5:54 PM 75.2 °F 50.0 °F 41% 29.96 in 10.0 mi ESE 8.1 mph - N/A   Clear
6:14 PM 75.2 °F 51.8 °F 44% 29.96 in 10.0 mi ESE 5.8 mph - N/A   Clear
6:34 PM 75.2 °F 51.8 °F 44% 29.96 in 10.0 mi ESE 8.1 mph - N/A   Clear
6:54 PM 75.2 °F 55.4 °F 50% 29.97 in 10.0 mi SSE 6.9 mph - N/A   Clear
7:15 PM 73.4 °F 53.6 °F 50% 29.98 in 10.0 mi SSE 9.2 mph - N/A   Clear
7:35 PM 71.6 °F 55.4 °F 57% 29.98 in 10.0 mi SSE 9.2 mph - N/A   Clear
7:55 PM 71.6 °F 48.2 °F 43% 29.98 in 10.0 mi SSE 6.9 mph - N/A   Clear
8:15 PM 71.6 °F 50.0 °F 46% 29.99 in 10.0 mi SSE 5.8 mph - N/A   Clear
8:35 PM 69.8 °F 51.8 °F 53% 29.98 in 10.0 mi SSE 3.5 mph - N/A   Clear
8:55 PM 69.8 °F 51.8 °F 53% 29.98 in 10.0 mi Calm Calm - N/A   Clear
9:15 PM 66.2 °F 51.8 °F 60% 29.99 in 10.0 mi Calm Calm - N/A   Clear
9:35 PM 62.6 °F 51.8 °F 68% 30.00 in 10.0 mi Calm Calm - N/A   Clear
9:55 PM 62.6 °F 53.6 °F 72% 30.00 in 10.0 mi Calm Calm - N/A   Clear
10:15 PM 60.8 °F 53.6 °F 77% 30.00 in 10.0 mi Calm Calm - N/A   Clear
10:36 PM 62.6 °F 53.6 °F 72% 30.01 in 10.0 mi Calm Calm - N/A   Clear
10:56 PM 60.8 °F 53.6 °F 77% 30.01 in 10.0 mi Calm Calm - N/A   Clear
11:16 PM 60.8 °F 55.4 °F 82% 30.02 in 10.0 mi Calm Calm - N/A   Clear
11:36 PM 59.0 °F 55.4 °F 88% 30.01 in 10.0 mi Calm Calm - N/A   Clear